Home   Weather   Berkeley   Past weeks

Flag for USA Past Weather in Berkeley, California, USA — Yesterday and Last 2 Weeks

Now
56 °F

Passing clouds.


Feels Like: 52 °F
Forecast: 55 / 62 °F
Wind: 17 mph from Northwest

Location: Metro Oakland International Airport

Current Time: Apr 23, 2017 at 10:34:22 pm

Latest Report: Apr 23, 2017 at 9:53 pm


Visibility: 10 mi

Pressure: 30.04 "Hg

Humidity: 81%

Dew Point: 50 °F

Location of BerkeleyLocation

Past Weather in Berkeley — Graph

°F

Berkeley Temperature Yesterday

Maximum temperature yesterday: 66 °F (at 12:53 pm)
Minimum temperature yesterday: 50 °F (at 4:17 am)
Average temperature yesterday: 59 °F

High & Low Weather Summary for the Past Weeks

 TemperatureHumidityPressure
High74 °F (Apr 21, 3:53 pm)100% (Apr 12, 1:20 am)30.32 "Hg (Apr 12, 1:20 am)
Low43 °F (Apr 9, 4:53 am)30% (Apr 12, 5:53 am)29.89 "Hg (Apr 12, 11:53 pm)
Average58 °F74%30.09 "Hg
* Reported Apr 8 8:53 pm — Apr 23 8:53 pm, Berkeley, Weather by CustomWeather, © 2017

Note: Actual official high and low records may vary slightly from our data, if they occured in-between our weather recording intervals... More about our weather records

Advertising

Berkeley Weather History for the Previous 24 Hours

Scroll right to see more
 ConditionsComfort  
Time TempWeatherWind HumidityBarometerVisibility
8:53 pm
Sun, Apr 23
57 °FPassing clouds.21 mph74%30.02 "Hg10 mi
7:53 pm58 °FPartly cloudy.22 mph70%30.01 "Hg10 mi
6:53 pm61 °FPartly sunny.22 mph67%30.01 "Hg10 mi
5:53 pm63 °FPartly sunny.25 mph60%30.01 "Hg10 mi
4:53 pm64 °FPartly sunny.24 mph61%30.01 "Hg10 mi
3:53 pm65 °FPartly sunny.26 mph59%30.02 "Hg10 mi
2:53 pm65 °FPartly sunny.23 mph61%30.04 "Hg10 mi
1:53 pm66 °FPartly sunny.23 mph59%30.03 "Hg10 mi
12:53 pm65 °FPartly sunny.20 mph63%30.03 "Hg10 mi
11:53 am65 °FScattered clouds.18 mph61%30.04 "Hg10 mi
10:53 am63 °FPassing clouds.16 mph60%30.02 "Hg10 mi
9:53 am62 °FPassing clouds.14 mph58%30.01 "Hg10 mi
8:53 am60 °FPassing clouds.9 mph60%30.01 "Hg10 mi
7:53 am58 °FPassing clouds.12 mph67%30.01 "Hg10 mi
6:53 am57 °FPartly sunny.14 mph72%29.99 "Hg10 mi
5:53 am57 °FPassing clouds.20 mph72%29.99 "Hg10 mi
4:53 am57 °FPassing clouds.17 mph69%29.99 "Hg10 mi
3:53 am57 °FOvercast.13 mph72%29.98 "Hg10 mi
2:53 am57 °FOvercast.12 mph72%29.98 "Hg10 mi
1:53 am55 °FPassing clouds.3 mph72%29.99 "Hg10 mi
12:53 am56 °FPassing clouds.9 mph72%30.00 "Hg10 mi
11:53 pm
Sat, Apr 22
53 °FPassing clouds.6 mph77%30.01 "Hg10 mi
10:53 pm57 °FPassing clouds.8 mph72%30.02 "Hg10 mi
Weather by CustomWeather, © 2017

See weather overviewHow to use our weather pages